Location: Hesters Ferry
(33.9426°N, 82.5501°W)
Time: 18:29:32
(UTC+00:00)

ARIANE 6 FM1 Upper Stage - Visible Passes

Search period start: 14 June 2025 00:00
Search period end: 24 June 2025 00:00
Orbit: 531 x 610 km, 62.0° (Epoch: 13 June)

Date Brightness Start Highest point End Pass type
(mag) Time Alt. Az. Time Alt. Az. Time Alt. Az.
14 Jun 4.7 01:57:59 10° N 02:00:44 17° NE 02:02:55 12° E visible
14 Jun 3.9 03:36:03 10° NW 03:39:01 36° W 03:39:01 36° W visible
15 Jun 4.2 01:59:06 10° N 02:02:34 25° NE 02:04:37 18° E visible
15 Jun 4.5 03:38:05 10° WNW 03:40:44 24° W 03:40:44 24° W visible
16 Jun 3.5 02:00:25 10° NNW 02:04:19 38° NE 02:06:23 23° ESE visible
16 Jun 5.0 03:40:29 10° WNW 03:42:30 16° WSW 03:42:30 16° WSW visible
17 Jun 2.8 02:01:54 10° NNW 02:06:02 63° ENE 02:08:11 27° SE visible
18 Jun 2.7 02:03:30 10° NW 02:07:40 79° WSW 02:10:03 25° SSE visible
19 Jun 3.4 02:05:16 10° NW 02:09:16 46° WSW 02:11:59 19° S visible
20 Jun 4.3 02:07:14 10° WNW 02:10:50 28° WSW 02:13:58 13° S visible
21 Jun 5.0 02:09:30 10° WNW 02:12:20 18° WSW 02:15:12 10° SSW visible
22 Jun 5.5 02:12:51 10° W 02:13:48 11° WSW 02:14:44 10° SW visible
